Two Harbors, MN

3:30 PM CST on November 23, 2017 (GMT -0600)
Helgeson

Weather History for KTWM - June, 2013

Change the Weather History Date:

Friday, June 7, 2013

  Actual Average Record
Temperature  
Mean Temperature 50 °F -  
Max Temperature 64 °F 68 °F 86 °F (1976)
Min Temperature 37 °F 43 °F 31 °F (1971)
Degree Days  
Heating Degree Days 14    
Moisture  
Dew Point 37 °F    
Average Humidity 61    
Maximum Humidity 87    
Minimum Humidity 37    
Precipitation  
Precipitation 0.00 in - - ()
Sea Level Pressure  
Sea Level Pressure 30.00 in    
Wind  
Wind Speed 1 mph (ESE)    
Max Wind Speed 6 mph    
Max Gust Speed -    
Visibility 10 miles    
Events      
Averages and records for this station are not official NWS values.
T = Trace of Precipitation, MM = Missing Value Source: NWS Daily Summary

Daily Weather History Graph

Daily Weather History Graph

Search for Another Location

Airport or City:

Trip Planner

Search our weather history database for the weather conditions in past years. The results will help you decide how hot, cold, wet, or windy it might be!

Date:

Astronomy

Jun. 07, 2013 Rise Set
Actual Time 5:12 AM CDT 8:59 PM CDT
Civil Twilight 4:33 AM CDT 9:39 PM CDT
Nautical Twilight 3:40 AM CDT 10:32 PM CDT
Astronomical Twilight 2:23 AM CDT 11:49 PM CDT
Moon 4:40 AM CDT (6/7) 8:09 PM CDT (6/7)
Length of Visible Light 17h 05m
Length of Day
15h 47m
Waning Crescent, 1% of the Moon is Illuminated
Jun 7
Waning Crescent
Jun 8
New
Jun 16
First Quarter
Jun 23
Full
Jun 29
Last Quarter

Hourly Weather History & Observations

Time (CDT) Temp. Dew Point Humidity Pressure Visibility Wind Dir Wind Speed Gust Speed Precip Events Conditions
12:11 AM 39.2 °F 35.6 °F 87% 30.05 in 10.0 mi Calm Calm - N/A   Scattered Clouds
12:31 AM 39.2 °F 35.6 °F 87% 30.05 in 10.0 mi Calm Calm - N/A   Clear
12:51 AM 39.2 °F 33.8 °F 81% 30.04 in 10.0 mi Calm Calm - N/A   Clear
1:11 AM 37.4 °F 33.8 °F 87% 30.04 in 10.0 mi Calm Calm - N/A   Clear
1:31 AM 37.4 °F 33.8 °F 87% 30.04 in 10.0 mi Calm Calm - N/A   Scattered Clouds
1:52 AM 37.4 °F 33.8 °F 87% 30.03 in 10.0 mi Calm Calm - N/A   Scattered Clouds
2:11 AM 37.4 °F 33.8 °F 87% 30.02 in 10.0 mi Calm Calm - N/A   Clear
2:31 AM 37.4 °F 32.0 °F 81% 30.02 in 10.0 mi Calm Calm - N/A   Clear
2:52 AM 37.4 °F 33.8 °F 87% 30.02 in 10.0 mi Calm Calm - N/A   Clear
3:11 AM 37.4 °F 32.0 °F 81% 30.02 in 10.0 mi Calm Calm - N/A   Clear
3:31 AM 37.4 °F 32.0 °F 81% 30.02 in 10.0 mi Calm Calm - N/A   Clear
3:52 AM 37.4 °F 32.0 °F 81% 30.02 in 10.0 mi Calm Calm - N/A   Scattered Clouds
4:11 AM 37.4 °F 32.0 °F 81% 30.02 in 10.0 mi Calm Calm - N/A   Scattered Clouds
4:31 AM 37.4 °F 33.8 °F 87% 30.02 in 10.0 mi Calm Calm - N/A   Mostly Cloudy
4:52 AM 39.2 °F 33.8 °F 81% 30.02 in 10.0 mi Calm Calm - N/A   Overcast
5:11 AM 39.2 °F 35.6 °F 87% 30.02 in 10.0 mi Calm Calm - N/A   Overcast
5:31 AM 39.2 °F 35.6 °F 87% 30.02 in 10.0 mi Calm Calm - N/A   Overcast
5:52 AM 42.8 °F 37.4 °F 81% 30.03 in 10.0 mi Calm Calm - N/A   Overcast
6:11 AM 42.8 °F 37.4 °F 81% 30.03 in 10.0 mi Calm Calm - N/A   Overcast
6:31 AM 46.4 °F 39.2 °F 76% 30.04 in 10.0 mi Calm Calm - N/A   Overcast
6:52 AM 46.4 °F 41.0 °F 81% 30.04 in 10.0 mi Calm Calm - N/A   Overcast
7:11 AM 46.4 °F 42.8 °F 87% 30.04 in 10.0 mi Calm Calm - N/A   Overcast
7:31 AM 48.2 °F 41.0 °F 76% 30.04 in 10.0 mi Calm Calm - N/A   Overcast
7:51 AM 50.0 °F 39.2 °F 66% 30.05 in 10.0 mi Calm Calm - N/A   Overcast
8:11 AM 50.0 °F 39.2 °F 66% 30.05 in 10.0 mi Calm Calm - N/A   Overcast
8:31 AM 50.0 °F 39.2 °F 66% 30.05 in 10.0 mi Calm Calm - N/A   Overcast
8:51 AM 51.8 °F 41.0 °F 67% 30.05 in 10.0 mi Calm Calm - N/A   Overcast
9:11 AM 51.8 °F 41.0 °F 67% 30.05 in 10.0 mi Calm Calm - N/A   Overcast
9:31 AM 53.6 °F 39.2 °F 58% 30.05 in 10.0 mi Calm Calm - N/A   Overcast
9:51 AM 53.6 °F 39.2 °F 58% 30.05 in 10.0 mi Calm Calm - N/A   Overcast
10:11 AM 53.6 °F 39.2 °F 58% 30.05 in 10.0 mi Calm Calm - N/A   Overcast
10:31 AM 55.4 °F 41.0 °F 58% 30.04 in 10.0 mi Calm Calm - N/A   Overcast
10:51 AM 55.4 °F 41.0 °F 58% 30.04 in 10.0 mi Calm Calm - N/A   Overcast
11:11 AM 57.2 °F 41.0 °F 55% 30.04 in 10.0 mi ESE 4.6 mph - N/A   Overcast
11:31 AM 57.2 °F 39.2 °F 51% 30.03 in 10.0 mi SE 5.8 mph - N/A   Overcast
11:51 AM 57.2 °F 39.2 °F 51% 30.03 in 10.0 mi Calm Calm - N/A   Overcast
12:11 PM 57.2 °F 39.2 °F 51% 30.03 in 10.0 mi East 3.5 mph - N/A   Overcast
12:31 PM 57.2 °F 39.2 °F 51% 30.03 in 10.0 mi Calm Calm - N/A   Overcast
12:51 PM 57.2 °F 39.2 °F 51% 30.02 in 10.0 mi Calm Calm - N/A   Mostly Cloudy
1:11 PM 59.0 °F 39.2 °F 48% 30.02 in 10.0 mi NE 3.5 mph - N/A   Overcast
1:31 PM 60.8 °F 39.2 °F 45% 30.01 in 10.0 mi Calm Calm - N/A   Overcast
1:51 PM 62.6 °F 35.6 °F 37% 30.00 in 10.0 mi Calm Calm - N/A   Overcast
2:11 PM 62.6 °F 35.6 °F 37% 29.99 in 10.0 mi NE 5.8 mph - N/A   Overcast
2:31 PM 62.6 °F 37.4 °F 39% 29.98 in 10.0 mi SSE 5.8 mph - N/A   Scattered Clouds
2:51 PM 62.6 °F 35.6 °F 37% 29.98 in 10.0 mi SE 4.6 mph - N/A   Clear
3:12 PM 62.6 °F 37.4 °F 39% 29.98 in 10.0 mi SSE 5.8 mph - N/A   Clear
3:31 PM 62.6 °F 37.4 °F 39% 29.98 in 10.0 mi ESE 4.6 mph - N/A   Scattered Clouds
3:51 PM 62.6 °F 37.4 °F 39% 29.97 in 10.0 mi SE 5.8 mph - N/A   Scattered Clouds
4:12 PM 60.8 °F 37.4 °F 42% 29.97 in 10.0 mi SE 5.8 mph - N/A   Scattered Clouds
4:31 PM 62.6 °F 37.4 °F 39% 29.97 in 10.0 mi Calm Calm - N/A   Scattered Clouds
4:51 PM 62.6 °F 37.4 °F 39% 29.96 in 10.0 mi Calm Calm - N/A   Scattered Clouds
5:12 PM 62.6 °F 37.4 °F 39% 29.96 in 10.0 mi SE 4.6 mph - N/A   Scattered Clouds
5:31 PM 64.4 °F 39.2 °F 40% 29.96 in 10.0 mi SSE 3.5 mph - N/A   Mostly Cloudy
5:51 PM 62.6 °F 39.2 °F 42% 29.95 in 10.0 mi ESE 3.5 mph - N/A   Overcast
6:12 PM 62.6 °F 39.2 °F 42% 29.95 in 10.0 mi East 5.8 mph - N/A   Mostly Cloudy
6:31 PM 60.8 °F 39.2 °F 45% 29.95 in 10.0 mi East 3.5 mph - N/A   Clear
6:51 PM 60.8 °F 37.4 °F 42% 29.95 in 10.0 mi East 3.5 mph - N/A   Clear
7:11 PM 59.0 °F 37.4 °F 45% 29.95 in 10.0 mi East 3.5 mph - N/A   Clear
7:31 PM 57.2 °F 35.6 °F 44% 29.95 in 10.0 mi East 3.5 mph - N/A   Clear
7:52 PM 55.4 °F 33.8 °F 44% 29.95 in 10.0 mi East 3.5 mph - N/A   Clear
8:11 PM 55.4 °F 33.8 °F 44% 29.95 in 10.0 mi East 3.5 mph - N/A   Clear
8:31 PM 53.6 °F 35.6 °F 51% 29.95 in 10.0 mi Calm Calm - N/A   Clear
8:52 PM 51.8 °F 35.6 °F 54% 29.95 in 10.0 mi Calm Calm - N/A   Clear
9:11 PM 51.8 °F 35.6 °F 54% 29.95 in 10.0 mi North 3.5 mph - N/A   Mostly Cloudy
9:31 PM 51.8 °F 35.6 °F 54% 29.95 in 10.0 mi North 3.5 mph - N/A   Overcast
9:52 PM 51.8 °F 35.6 °F 54% 29.95 in 10.0 mi Calm Calm - N/A   Overcast
10:11 PM 53.6 °F 35.6 °F 51% 29.95 in 10.0 mi Calm Calm - N/A   Overcast
10:31 PM 51.8 °F 37.4 °F 58% 29.95 in 10.0 mi Calm Calm - N/A   Overcast
10:51 PM 51.8 °F 37.4 °F 58% 29.94 in 10.0 mi Calm Calm - N/A   Overcast
11:11 PM 50.0 °F 37.4 °F 62% 29.94 in 10.0 mi Calm Calm - N/A   Overcast
11:31 PM 50.0 °F 39.2 °F 66% 29.94 in 10.0 mi Calm Calm - N/A   Overcast
11:51 PM 50.0 °F 39.2 °F 66% 29.94 in 10.0 mi Calm Calm - N/A   Overcast